[[{"header":{"parameterUnit":"m.s-1","parameterCategory":1,"la1":30.2991,"la2":30.254,"lo1":-89.0895,"lo2":-89.0444,"dy":0.0017,"dx":0.0017,"nx":28,"ny":28,"refTime":"2025-04-17T21:00:00:Z","depth":0,"parameterNumber":2,"parameterNumberName":"U-component_of_WINDS"},"data":[0,0,0,0,0,0,0,0,0,0,0,0,0,0,0,0,0,0,0,0,0,0,0,0,0,0,0,0,0,0,0,0,0,0,0,0,0,0,0,0,0,0,0,0,0,0,0,0,0,0,0,0,0,0,0,0,0,0,-3.3678,-3.3679,0,-3.3767,-3.3768,-3.3769,-3.3795,-3.3794,-3.3794,-3.3793,-3.3885,-3.3887,-3.389,0,0,0,0,0,0,0,0,0,0,0,0,0,-3.3531,-3.3533,-3.3678,-3.3679,-3.368,-3.3767,-3.3768,-3.3769,-3.3795,-3.3794,-3.3794,-3.3793,-3.3884,-3.3887,-3.3891,0,0,0,0,0,0,0,0,0,0,0,0,0,-3.3605,-3.3534,-3.3677,-3.3703,-3.3706,-3.3766,-3.3768,-3.3769,-3.3795,-3.3794,-3.3793,-3.3793,-3.3883,-3.3887,-3.3891,-3.3932,0,0,-3.3904,-3.3906,0,0,0,0,0,0,0,0,-3.36,-3.361,-3.3698,-3.3701,-3.3705,-3.3769,-3.375,-3.3824,-3.3795,-3.3761,-3.3793,-3.3792,-3.3847,-3.3854,-3.3872,-3.3936,-3.394,-3.3905,-3.3907,-3.3909,-3.391,0,0,0,0,0,0,0,-3.3595,-3.3606,-3.3713,-3.3699,-3.3704,-3.3711,-3.372,-3.3764,-3.3807,-3.3764,-3.3766,-3.3776,-3.3848,-3.3868,-3.3875,-3.3942,-3.3904,-3.3908,-3.3911,-3.3913,-3.4045,-3.4046,0,0,0,0,0,0,-3.3586,-3.3602,-3.371,-3.3716,-3.365,-3.3714,-3.3725,-3.3749,-3.3807,-3.3815,-3.3777,-3.3777,-3.3861,-3.387,-3.3878,-3.393,-3.3909,-3.3913,-3.3916,-3.4044,-3.4045,-3.4046,0,0,0,0,0,0,-3.3582,-3.3595,-3.3706,-3.3659,-3.3674,-3.3717,-3.3744,-3.3751,-3.3771,-3.3816,-3.3824,-3.3789,-3.3861,-3.3872,-3.3919,-3.3933,-3.3915,-3.3919,-3.4043,-3.4044,-3.4046,-3.4033,0,0,0,0,0,0,-3.3578,-3.3594,-3.3609,-3.366,-3.3676,-3.3745,-3.3745,-3.3754,-3.3778,-3.3779,-3.3829,-3.3837,-3.3861,-3.3912,-3.3923,-3.3939,-3.3922,-3.4042,-3.4043,-3.4045,-3.4033,-3.4034,-3.4036,0,0,0,0,0,-3.3573,-3.3602,-3.361,-3.3623,-3.3697,-3.3746,-3.3756,-3.3782,-3.3779,-3.3795,-3.3825,-3.3835,-3.393,-3.3917,-3.3929,-3.3946,-3.4041,-3.4043,-3.4045,-3.4032,-3.4034,-3.4035,0,0,0,0,0,0,-3.3552,-3.3609,-3.3618,-3.3665,-3.37,-3.375,-3.3771,-3.3784,-3.3821,-3.382,-3.3853,-3.3864,-3.3908,-3.3932,-3.3916,-3.399,-3.3986,-3.3991,-3.3972,-3.3974,-3.3975,-3.3968,-3.3926,0,0,0,0,0,-3.3553,-3.3588,-3.3636,-3.3672,-3.369,-3.3727,-3.375,-3.3768,-3.3806,-3.3821,-3.3854,-3.389,-3.3929,-3.3953,-3.3991,-3.4037,-3.4048,-3.4056,-3.4057,-3.4058,-3.4061,-3.4088,-3.4091,-3.4053,-3.4053,-3.4053,0,0,-3.3555,-3.359,-3.361,-3.3669,-3.3699,-3.3734,-3.374,-3.3777,-3.3804,-3.3827,-3.3872,-3.3898,-3.3942,-3.3988,-3.4011,-3.401,-3.4075,-3.4061,-3.4061,-3.4064,-3.409,-3.4094,-3.4097,-3.4054,-3.4054,-3.4054,0,0,-3.3576,-3.3607,-3.3641,-3.3671,-3.3716,-3.3741,-3.3749,-3.3798,-3.3815,-3.3862,-3.388,-3.3913,-3.3978,-3.4009,-3.4032,-3.4068,-3.4079,-3.4079,-3.4086,-3.4112,-3.4115,-3.4118,-3.413,-3.4134,-3.4083,-3.4083,-3.4083,0,-3.3573,-3.3627,-3.3656,-3.3693,-3.3719,-3.3742,-3.3776,-3.3804,-3.3859,-3.3876,-3.3875,-3.3958,-3.3989,-3.4043,-3.4052,-3.4071,-3.4081,-3.4073,-3.4112,-3.4115,-3.4118,-3.413,-3.4135,-3.4082,-3.4082,-3.4082,-3.4082,0,-3.3621,-3.3658,-3.368,-3.3733,-3.3761,-3.3797,-3.3832,-3.3857,-3.3873,-3.3899,-3.3947,-3.3985,-3.4031,-3.4046,-3.4062,-3.4103,-3.4101,-3.4106,-3.4102,-3.4121,-3.4133,-3.4138,-3.4082,-3.4082,-3.4082,-3.4082,0,0,-3.3629,-3.3699,-3.3707,-3.3731,-3.3784,-3.3813,-3.3851,-3.3896,-3.3917,-3.3955,-3.3987,-3.4042,-3.4047,-3.4074,-3.4094,-3.4117,-3.4142,-3.4119,-3.4121,-3.4121,-3.419,-3.4185,-3.419,-3.4151,-3.4152,-3.4153,-3.4186,0,-3.3657,-3.3723,-3.3752,-3.3806,-3.3841,-3.3864,-3.3897,-3.3933,-3.3958,-3.3992,-3.4021,-3.4059,-3.4063,-3.408,-3.4104,-3.4134,-3.4156,-3.4132,-3.4181,-3.4182,-3.4168,-3.4196,-3.4191,-3.422,-3.4191,-3.4192,-3.4192,0,-3.3697,-3.3735,-3.3792,-3.3841,-3.3857,-3.3886,-3.393,-3.3962,-3.4004,-3.4021,-3.4053,-3.4072,-3.4112,-3.4108,-3.4164,-3.4147,-3.4169,-3.4188,-3.419,-3.4194,-3.4187,-3.42,-3.4231,-3.4234,-3.42,-3.4199,-3.4199,0,-3.3697,-3.3763,-3.3806,-3.3826,-3.3885,-3.3904,-3.3929,-3.3971,-3.3996,-3.4036,-3.4053,-3.4096,-3.412,-3.4153,-3.4184,-3.4178,-3.4238,-3.4236,-3.4253,-3.4252,-3.4263,-3.4261,-3.4296,-3.4279,-3.4279,-3.4279,-3.4279,0,-3.3724,-3.3758,-3.3806,-3.3833,-3.3872,-3.3905,-3.3943,-3.397,-3.4007,-3.4039,-3.4063,-3.4093,-3.4132,-3.4167,-3.4192,-3.4235,-3.4246,-3.4261,-3.4267,-3.4258,-3.4256,-3.4271,-3.427,-3.428,-3.428,-3.428,-3.4279,0,-3.3729,-3.3763,-3.3811,-3.3863,-3.3877,-3.3904,-3.3948,-3.3975,-3.4002,-3.4043,-3.4055,-3.4098,-3.414,-3.4175,-3.4231,-3.4248,-3.4293,-3.43,-3.4278,-3.4281,-3.4296,-3.4294,-3.434,-3.4348,-3.4327,-3.4327,-3.4328,0,-3.3743,-3.377,-3.3825,-3.3848,-3.3873,-3.391,-3.3937,-3.3971,-3.3998,-3.4049,-3.4069,-3.4114,-3.4151,-3.4219,-3.4255,-3.4299,-3.4307,-3.432,-3.4313,-3.4304,-3.4306,-3.4303,-3.4306,-3.432,-3.432,-3.432,-3.432,0,-3.3765,-3.3781,-3.3818,-3.3861,-3.3892,-3.3928,-3.3965,-3.3983,-3.4024,-3.4053,-3.4097,-3.4126,-3.4184,-3.4228,-3.4275,-3.4302,-3.4318,-3.4323,-3.4329,-3.4319,-3.4305,-3.4312,-3.4279,-3.4321,-3.4321,-3.4321,-3.4321,-3.4321,-3.3775,-3.3799,-3.3842,-3.3883,-3.3914,-3.3948,-3.3976,-3.4007,-3.4044,-3.4094,-3.4112,-3.4157,-3.42,-3.4266,-3.4293,-3.4329,-3.4331,-3.434,-3.4342,-3.4343,-3.4342,-3.4301,-3.4338,-3.4338,-3.4338,-3.4338,-3.4338,0,-3.3796,-3.3825,-3.3863,-3.3913,-3.3946,-3.3959,-3.4,-3.4026,-3.4066,-3.4104,-3.4141,-3.4192,-3.4235,-3.4276,-3.4321,-3.4343,-3.4351,-3.4353,-3.4351,-3.4357,-3.4338,-3.4328,-3.4346,-3.4346,-3.4346,-3.4346,-3.4346,-3.4346,-3.3811,-3.3854,-3.3875,-3.3934,-3.3964,-3.4008,-3.403,-3.4062,-3.4093,-3.4149,-3.4185,-3.4211,-3.4251,-3.43,-3.434,-3.4351,-3.4366,-3.4366,-3.4379,-3.436,-3.4359,-3.4357,-3.4348,-3.437,-3.437,-3.4395,-3.4395,-3.4396]},{"header":{"parameterUnit":"m.s-1","parameterCategory":1,"la1":30.2991,"la2":30.254,"lo1":-89.0895,"lo2":-89.0444,"dy":0.0017,"dx":0.0017,"nx":28,"ny":28,"refTime":"2025-04-17T21:00:00:Z","depth":0,"parameterNumber":3,"parameterNumberName":"V-component_of_WINDS"},"data":[0,0,0,0,0,0,0,0,0,0,0,0,0,0,0,0,0,0,0,0,0,0,0,0,0,0,0,0,0,0,0,0,0,0,0,0,0,0,0,0,0,0,0,0,0,0,0,0,0,0,0,0,0,0,0,0,0,0,4.8612,4.8612,0,4.864,4.864,4.8641,4.8636,4.8636,4.8635,4.8635,4.8663,4.8664,4.8665,0,0,0,0,0,0,0,0,0,0,0,0,0,4.8554,4.8555,4.8612,4.8612,4.8612,4.864,4.864,4.8641,4.8636,4.8636,4.8635,4.8634,4.8662,4.8664,4.8665,0,0,0,0,0,0,0,0,0,0,0,0,0,4.858,4.8555,4.8612,4.8613,4.8614,4.864,4.864,4.8641,4.8636,4.8636,4.8635,4.8634,4.8662,4.8664,4.8665,4.8691,0,0,4.8671,4.8672,0,0,0,0,0,0,0,0,4.8579,4.8582,4.8613,4.8613,4.8614,4.8634,4.863,4.8658,4.8636,4.8628,4.8635,4.8634,4.8654,4.8656,4.8663,4.8692,4.8694,4.8671,4.8672,4.8673,4.8673,0,0,0,0,0,0,0,4.8577,4.8581,4.8623,4.8613,4.8614,4.8613,4.8616,4.8636,4.8644,4.8628,4.8628,4.8632,4.8654,4.8661,4.8664,4.8694,4.8671,4.8673,4.8674,4.8674,4.8749,4.8749,0,0,0,0,0,0,4.8575,4.858,4.8622,4.8624,4.8594,4.8615,4.8618,4.8628,4.8644,4.8646,4.8632,4.8631,4.8659,4.8662,4.8665,4.8697,4.8673,4.8675,4.8676,4.8748,4.8749,4.875,0,0,0,0,0,0,4.8573,4.8579,4.8621,4.8602,4.8607,4.8616,4.8628,4.8629,4.8637,4.8647,4.8649,4.8638,4.8658,4.8662,4.8685,4.8698,4.8675,4.8677,4.8747,4.8748,4.8749,4.8762,0,0,0,0,0,0,4.8572,4.8578,4.8588,4.8602,4.8608,4.8641,4.8629,4.863,4.864,4.8639,4.8653,4.8655,4.8658,4.8683,4.8687,4.87,4.8679,4.8746,4.8747,4.8749,4.8761,4.8764,4.8767,0,0,0,0,0,4.857,4.859,4.8588,4.8593,4.862,4.8642,4.8645,4.8648,4.8641,4.8651,4.8658,4.8654,4.8696,4.8685,4.869,4.8704,4.8745,4.8747,4.8749,4.8759,4.8763,4.8767,0,0,0,0,0,0,4.8576,4.8591,4.859,4.8615,4.8627,4.8641,4.8653,4.8652,4.8666,4.8665,4.8668,4.8671,4.8695,4.8702,4.8689,4.8731,4.8719,4.8722,4.8726,4.873,4.8732,4.8731,4.868,0,0,0,0,0,4.858,4.8596,4.8609,4.863,4.8636,4.8644,4.8653,4.8655,4.8667,4.8672,4.8681,4.8693,4.8709,4.872,4.8735,4.8762,4.8766,4.8774,4.8777,4.8779,4.8782,4.8799,4.8803,4.8756,4.8756,4.8756,0,0,4.8589,4.8599,4.8609,4.8631,4.8641,4.8658,4.8648,4.8666,4.8679,4.8675,4.8698,4.8705,4.8719,4.8744,4.8756,4.8751,4.8796,4.8782,4.8784,4.8785,4.8801,4.8806,4.881,4.8758,4.8757,4.8757,0,0,4.8614,4.8623,4.8642,4.8653,4.8668,4.8673,4.8678,4.8692,4.8697,4.872,4.8718,4.8734,4.8761,4.8771,4.878,4.8812,4.881,4.8817,4.8832,4.8848,4.8852,4.8855,4.8868,4.8872,4.8819,4.8819,4.8819,0,4.8623,4.8648,4.8652,4.8671,4.8682,4.868,4.87,4.871,4.8729,4.8736,4.873,4.8765,4.8774,4.8804,4.8812,4.8818,4.8825,4.8815,4.8851,4.8855,4.8858,4.887,4.8875,4.882,4.882,4.882,4.882,0,4.866,4.8678,4.8691,4.8711,4.8723,4.8742,4.875,4.8761,4.8762,4.8769,4.8793,4.8804,4.8823,4.883,4.883,4.886,4.8856,4.885,4.8839,4.8863,4.8875,4.8879,4.8821,4.8821,4.8821,4.8821,0,0,4.8688,4.8712,4.8717,4.8727,4.8744,4.8758,4.8778,4.8797,4.8807,4.8821,4.8838,4.8862,4.8858,4.8868,4.887,4.8884,4.8911,4.8877,4.8878,4.8884,4.8945,4.895,4.8956,4.8909,4.891,4.8911,4.8945,0,4.8716,4.8752,4.8757,4.8788,4.8806,4.8806,4.8823,4.8836,4.8843,4.8859,4.8866,4.8884,4.8876,4.8882,4.8896,4.8904,4.8923,4.8902,4.8926,4.8927,4.8924,4.8961,4.8966,4.8998,4.8949,4.895,4.895,0,4.8753,4.877,4.8803,4.882,4.8828,4.8843,4.8862,4.8877,4.8892,4.8896,4.8909,4.891,4.8931,4.8919,4.8949,4.8934,4.8945,4.895,4.8952,4.8955,4.8941,4.8967,4.9008,4.9013,4.8957,4.8957,4.8956,0,4.8773,4.8803,4.8828,4.8836,4.8856,4.8867,4.8876,4.889,4.8902,4.8918,4.8926,4.8944,4.8954,4.8969,4.8975,4.8965,4.9006,4.8993,4.901,4.901,4.9019,4.9019,4.9064,4.9024,4.9024,4.9024,4.9024,0,4.8804,4.8825,4.8837,4.8852,4.8876,4.8882,4.8905,4.8914,4.8927,4.8944,4.8945,4.8961,4.8967,4.8985,4.899,4.9015,4.9019,4.9024,4.9025,4.9024,4.9024,4.9032,4.903,4.9025,4.9025,4.9025,4.9024,0,4.883,4.8839,4.8866,4.8883,4.8888,4.8905,4.892,4.8935,4.8943,4.8965,4.897,4.8981,4.9002,4.901,4.9034,4.9038,4.9068,4.9066,4.9063,4.9064,4.9081,4.908,4.9133,4.9141,4.9095,4.9096,4.9096,0,4.885,4.8867,4.8886,4.8898,4.8908,4.8927,4.8939,4.8946,4.8959,4.8978,4.8992,4.9012,4.903,4.9063,4.9074,4.9093,4.9093,4.9111,4.9096,4.9096,4.9095,4.9095,4.9097,4.9113,4.9114,4.9114,4.9115,0,4.8885,4.8889,4.8907,4.8927,4.8942,4.8958,4.8974,4.8983,4.8992,4.9007,4.9029,4.9042,4.9069,4.909,4.9111,4.912,4.9119,4.9119,4.9125,4.9125,4.9122,4.9125,4.9072,4.9118,4.9118,4.9117,4.9117,4.9117,4.891,4.8925,4.8942,4.8963,4.8975,4.899,4.9006,4.9016,4.9034,4.9057,4.9059,4.9083,4.91,4.9127,4.9138,4.9157,4.9152,4.9159,4.9161,4.9163,4.9165,4.9119,4.916,4.916,4.916,4.916,4.916,0,4.8946,4.8957,4.8976,4.8999,4.9015,4.9014,4.9031,4.9045,4.9067,4.9082,4.9099,4.9125,4.9146,4.9159,4.918,4.9193,4.9194,4.9199,4.9199,4.9201,4.9168,4.9162,4.9198,4.9198,4.9198,4.9198,4.9198,4.9198,4.8967,4.8994,4.9,4.9033,4.9044,4.9068,4.9079,4.9093,4.9105,4.9135,4.9153,4.9161,4.9176,4.9198,4.9218,4.9221,4.923,4.9236,4.9239,4.9207,4.9203,4.9199,4.9194,4.9237,4.9237,4.9271,4.9271,4.9271]}]]